Location: Ferma
(41.9500°N, 44.5167°E)
Time: 14:15:40
(UTC+00:00)

H-2A R/B - Pass Details

Date: 24 October 2021
Orbit: 732 x 837 km, 98.2° (Epoch: 07 December)

Event Time Altitude Azimuth Distance (km) Brightness Sun altitude
Rises 15:52:19 0° 191° (S) 3,333 5.4 -20.2°
Reaches altitude 10° 15:54:52 10° 201° (SSW) 2,418 4.8 -20.7°
Maximum altitude 15:59:40 33° 264° (W) 1,371 3.9 -21.6°
Drops below altitude 10° 16:04:34 10° 328° (NNW) 2,458 5.1 -22.5°
Sets 16:07:12 0° 338° (NNW) 3,398 5.7 -23.0°
